When you browse on this site, cookies collect data to enhance your experience and personalize the content and advertising you see.
Visit our Privacy Policy to learn more. By continuing to use the site, you agree to this use of cookies and data.

Hourly Weather Sydney

Today, 6 July, Monday

Time Temperature Precipitation Wind Pressure Humidity
00:00 +10°C° 0 mm 4 mps 768 mmHg 70%
01:00 +10°C° 0 mm 4 mps 768 mmHg 71%
02:00 +8°C° 0 mm 4 mps 768 mmHg 73%
03:00 +8°C° 0 mm 4 mps 768 mmHg 76%
04:00 +7°C° 0 mm 4 mps 768 mmHg 77%
05:00 +7°C° 0 mm 4 mps 768 mmHg 79%
06:00 +7°C° 0 mm 4 mps 768 mmHg 80%
07:00 +7°C° 0 mm 3 mps 769 mmHg 82%
08:00 +9°C° 0 mm 3 mps 769 mmHg 73%
09:00 +11°C° 0 mm 3 mps 769 mmHg 64%
10:00 +14°C° 0 mm 3 mps 770 mmHg 55%
11:00 +16°C° 0 mm 3 mps 769 mmHg 52%
12:00 +17°C° 0 mm 3 mps 769 mmHg 48%
13:00 +18°C° 0 mm 4 mps 768 mmHg 45%
14:00 +17°C° 0 mm 4 mps 768 mmHg 51%
15:00 +16°C° 0 mm 5 mps 768 mmHg 56%
16:00 +15°C° 0 mm 5 mps 768 mmHg 62%
17:00 +14°C° 0 mm 4 mps 769 mmHg 67%
18:00 +13°C° 0 mm 4 mps 769 mmHg 73%
19:00 +11°C° 0 mm 4 mps 770 mmHg 78%
20:00 +11°C° 0 mm 3 mps 770 mmHg 80%
21:00 +10°C° 0 mm 3 mps 770 mmHg 82%
22:00 +10°C° 0 mm 3 mps 771 mmHg 84%
23:00 +10°C° 0 mm 3 mps 770 mmHg 83%

Tomorrow, 7 July, Tuesday

Time Temperature Precipitation Wind Pressure Humidity
00:00 +10°C° 0 mm 3 mps 770 mmHg 82%
01:00 +10°C° 0 mm 3 mps 770 mmHg 81%
02:00 +10°C° 0 mm 3 mps 770 mmHg 82%
03:00 +10°C° 0 mm 3 mps 770 mmHg 82%
04:00 +9°C° 0 mm 3 mps 770 mmHg 83%
05:00 +9°C° 0 mm 3 mps 770 mmHg 84%
06:00 +8°C° 0 mm 3 mps 771 mmHg 85%
07:00 +8°C° 0 mm 3 mps 771 mmHg 85%
08:00 +10°C° 0 mm 3 mps 771 mmHg 76%
09:00 +12°C° 0 mm 3 mps 771 mmHg 68%
10:00 +13°C° 0 mm 3 mps 772 mmHg 59%
11:00 +15°C° 0 mm 4 mps 771 mmHg 55%
12:00 +17°C° 0 mm 4 mps 770 mmHg 50%
13:00 +18°C° 0 mm 4 mps 770 mmHg 46%
14:00 +18°C° 0 mm 4 mps 770 mmHg 49%
15:00 +16°C° 0 mm 5 mps 770 mmHg 52%
16:00 +16°C° 0 mm 5 mps 770 mmHg 55%
17:00 +14°C° 0.2 mm 5 mps 770 mmHg 66%
18:00 +13°C° 0.2 mm 4 mps 771 mmHg 77%
19:00 +12°C° 0.2 mm 4 mps 771 mmHg 88%
20:00 +12°C° 0.3 mm 4 mps 772 mmHg 88%
21:00 +12°C° 0.3 mm 4 mps 772 mmHg 87%
22:00 +13°C° 0.3 mm 3 mps 772 mmHg 87%
23:00 +12°C° 0.3 mm 3 mps 772 mmHg 87%

Day after tomorrow, 8 July, Wednesday

Time Temperature Precipitation Wind Pressure Humidity
00:00 +12°C° 0.3 mm 3 mps 772 mmHg 87%
01:00 +12°C° 0.3 mm 3 mps 772 mmHg 87%
02:00 +12°C° 0.1 mm 3 mps 771 mmHg 86%
03:00 +12°C° 0.1 mm 3 mps 771 mmHg 85%
04:00 +12°C° 0.1 mm 3 mps 771 mmHg 84%
05:00 +13°C° 0 mm 2 mps 772 mmHg 84%
06:00 +13°C° 0 mm 2 mps 772 mmHg 84%
07:00 +13°C° 0 mm 2 mps 772 mmHg 83%
08:00 +13°C° 0 mm 2 mps 772 mmHg 82%
09:00 +14°C° 0 mm 2 mps 772 mmHg 81%
10:00 +14°C° 0 mm 1 mps 772 mmHg 79%
11:00 +15°C° 0 mm 1 mps 772 mmHg 74%
12:00 +15°C° 0 mm 2 mps 771 mmHg 69%
13:00 +16°C° 0 mm 2 mps 771 mmHg 64%
14:00 +16°C° 0 mm 2 mps 771 mmHg 63%
15:00 +16°C° 0 mm 2 mps 771 mmHg 63%
16:00 +15°C° 0 mm 2 mps 770 mmHg 63%
17:00 +14°C° 0 mm 2 mps 771 mmHg 66%
18:00 +13°C° 0 mm 2 mps 771 mmHg 70%
19:00 +12°C° 0 mm 2 mps 771 mmHg 73%
20:00 +12°C° 0 mm 2 mps 772 mmHg 75%
21:00 +10°C° 0 mm 2 mps 772 mmHg 77%
22:00 +10°C° 0 mm 2 mps 772 mmHg 79%
23:00 +10°C° 0 mm 2 mps 772 mmHg 81%

9 July, Thursday

Time Temperature Precipitation Wind Pressure Humidity
00:00 +11°C° 0 mm 1 mps 772 mmHg 82%
01:00 +10°C° 0 mm 1 mps 771 mmHg 84%
02:00 +10°C° 0 mm 1 mps 771 mmHg 85%
03:00 +10°C° 0 mm 1 mps 771 mmHg 87%
04:00 +9°C° 0 mm 1 mps 771 mmHg 88%
05:00 +8°C° 0 mm 2 mps 771 mmHg 89%
06:00 +8°C° 0 mm 2 mps 772 mmHg 89%
07:00 +8°C° 0 mm 2 mps 772 mmHg 90%
08:00 +10°C° 0 mm 2 mps 772 mmHg 82%
09:00 +12°C° 0 mm 2 mps 772 mmHg 74%
10:00 +14°C° 0 mm 2 mps 772 mmHg 66%
11:00 +15°C° 0 mm 2 mps 771 mmHg 62%
12:00 +16°C° 0 mm 2 mps 771 mmHg 59%
13:00 +18°C° 0 mm 2 mps 770 mmHg 55%
14:00 +17°C° 0 mm 2 mps 770 mmHg 58%
15:00 +17°C° 0 mm 3 mps 769 mmHg 61%
16:00 +17°C° 0 mm 4 mps 769 mmHg 63%
17:00 +15°C° 0 mm 4 mps 770 mmHg 70%
18:00 +13°C° 0 mm 4 mps 770 mmHg 76%
19:00 +12°C° 0 mm 4 mps 770 mmHg 83%
20:00 +12°C° 0.1 mm 3 mps 770 mmHg 84%
21:00 +12°C° 0.1 mm 3 mps 770 mmHg 86%
22:00 +11°C° 0.1 mm 3 mps 770 mmHg 87%
23:00 +12°C° 0 mm 2 mps 770 mmHg 88%

10 July, Friday

Time Temperature Precipitation Wind Pressure Humidity
00:00 +12°C° 0 mm 2 mps 770 mmHg 88%
01:00 +10°C° 0 mm 2 mps 769 mmHg 89%
02:00 +10°C° 0 mm 2 mps 769 mmHg 89%
03:00 +10°C° 0 mm 2 mps 769 mmHg 88%
04:00 +10°C° 0 mm 2 mps 769 mmHg 88%
05:00 +10°C° 0 mm 2 mps 769 mmHg 86%
06:00 +10°C° 0 mm 2 mps 769 mmHg 85%
07:00 +10°C° 0 mm 2 mps 769 mmHg 83%
08:00 +12°C° 0 mm 2 mps 769 mmHg 75%
09:00 +13°C° 0 mm 2 mps 769 mmHg 66%
10:00 +15°C° 0 mm 2 mps 769 mmHg 58%
11:00 +17°C° 0 mm 2 mps 768 mmHg 51%
12:00 +19°C° 0 mm 1 mps 767 mmHg 45%
13:00 +21°C° 0 mm 1 mps 766 mmHg 38%
14:00 +21°C° 0 mm 1 mps 766 mmHg 40%
15:00 +19°C° 0 mm 2 mps 766 mmHg 42%
16:00 +19°C° 0 mm 3 mps 765 mmHg 43%
17:00 +17°C° 0 mm 3 mps 766 mmHg 53%
18:00 +16°C° 0 mm 3 mps 766 mmHg 62%
19:00 +13°C° 0 mm 3 mps 766 mmHg 72%
20:00 +14°C° 0 mm 2 mps 766 mmHg 73%
21:00 +13°C° 0 mm 2 mps 766 mmHg 74%
22:00 +13°C° 0 mm 2 mps 765 mmHg 76%
23:00 +12°C° 0 mm 2 mps 765 mmHg 76%

11 July, Saturday

Time Temperature Precipitation Wind Pressure Humidity
00:00 +12°C° 0 mm 2 mps 765 mmHg 76%
01:00 +10°C° 0 mm 3 mps 764 mmHg 76%
02:00 +10°C° 0 mm 3 mps 764 mmHg 77%
03:00 +10°C° 0 mm 3 mps 763 mmHg 77%
04:00 +10°C° 0 mm 3 mps 762 mmHg 77%
05:00 +11°C° 0.3 mm 3 mps 762 mmHg 81%
06:00 +11°C° 0.3 mm 4 mps 762 mmHg 85%
07:00 +11°C° 0.3 mm 4 mps 762 mmHg 89%
08:00 +12°C° 0.3 mm 5 mps 762 mmHg 88%
09:00 +12°C° 0.3 mm 5 mps 762 mmHg 86%
10:00 +13°C° 0.3 mm 6 mps 762 mmHg 85%
11:00 +15°C° 0 mm 5 mps 761 mmHg 74%
12:00 +18°C° 0 mm 4 mps 761 mmHg 62%
13:00 +20°C° 0 mm 4 mps 760 mmHg 51%
14:00 +20°C° 0 mm 3 mps 760 mmHg 50%
15:00 +20°C° 0 mm 3 mps 760 mmHg 48%
16:00 +20°C° 0 mm 2 mps 760 mmHg 47%
17:00 +18°C° 0 mm 2 mps 761 mmHg 51%
18:00 +16°C° 0 mm 3 mps 761 mmHg 56%
19:00 +13°C° 0 mm 3 mps 762 mmHg 61%
20:00 +13°C° 0 mm 3 mps 762 mmHg 64%
21:00 +12°C° 0 mm 3 mps 762 mmHg 67%
22:00 +11°C° 0 mm 3 mps 762 mmHg 71%
23:00 +11°C° 0 mm 3 mps 763 mmHg 72%
Show more